Weather History for Fort Myers, FL

Change the Weather History Date:

Wednesday, February 6, 2013

  Actual Average Record
Temperature  
Mean Temperature 70 °F 66 °F  
Max Temperature 82 °F 76 °F 86 °F (1989)
Min Temperature 58 °F 55 °F 33 °F (1947)
Degree Days  
Heating Degree Days 0 3  
Month to date heating degree days 19 18  
Since 1 July heating degree days 91 219  
Cooling Degree Days 5 3  
Month to date cooling degree days 5 18  
Year to date cooling degree days 181 101  
Growing Degree Days 19 (Base 50)    
Moisture  
Dew Point 58 °F    
Average Humidity 67    
Maximum Humidity 90    
Minimum Humidity 45    
Precipitation  
Precipitation T in 0.07 in 0.92 in (1919)
Month to date precipitation T 0.42  
Year to date precipitation 0.62 2.36  
Sea Level Pressure  
Sea Level Pressure 30.07 in    
Wind  
Wind Speed 3 mph (SSE)    
Max Wind Speed 13 mph    
Max Gust Speed 16 mph    
Visibility 10 miles    
Events      
T = Trace of Precipitation, MM = Missing Value Source: NWS Daily Summary

Daily Weather History Graph

Daily Weather History Graph

Search for Another Location

Airport:

Trip Planner

Search our weather history database for the weather conditions in past years. The results will help you decide how hot, cold, wet, or windy it might be!

Date:

Astronomy

Feb. 06, 2013 Rise Set
Actual Time 7:09 AM EST 6:13 PM EST
Civil Twilight 6:45 AM EST 6:37 PM EST
Nautical Twilight 6:17 AM EST 7:05 PM EST
Astronomical Twilight 5:50 AM EST 7:32 PM EST
Moon 3:41 AM EST (2/6) 2:40 PM EST (2/6)
Length of Visible Light 11h 52m
Length of Day
11h 04m
Waning Crescent, 17% of the Moon is Illuminated
Feb 6
Waning Crescent
Feb 10
New
Feb 17
First Quarter
Feb 25
Full
Mar 4
Last Quarter

Hourly Weather History & Observations

Time (EST) Temp. Heat Index Dew Point Humidity Pressure Visibility Wind Dir Wind Speed Gust Speed Precip Events Conditions
12:53 AM 64.9 °F - 55.0 °F 70% 30.06 in 10.0 mi Calm Calm - N/A   Scattered Clouds
2:53 AM 62.1 °F - 54.0 °F 75% 30.04 in 10.0 mi Calm Calm - N/A   Clear
3:53 AM 60.1 °F - 54.0 °F 80% 30.04 in 10.0 mi Calm Calm - N/A   Clear
4:53 AM 59.0 °F - 53.1 °F 81% 30.05 in 10.0 mi East 3.5 mph - N/A   Clear
5:53 AM 59.0 °F - 53.1 °F 81% 30.06 in 10.0 mi ESE 3.5 mph - N/A   Clear
6:53 AM 57.9 °F - 53.1 °F 84% 30.08 in 10.0 mi Calm Calm - N/A   Clear
7:53 AM 60.1 °F - 54.0 °F 80% 30.09 in 10.0 mi ESE 3.5 mph - N/A   Clear
8:53 AM 66.0 °F - 53.1 °F 63% 30.11 in 10.0 mi East 3.5 mph - N/A   Clear
9:53 AM 72.0 °F - 55.0 °F 55% 30.13 in 10.0 mi Variable 3.5 mph - N/A   Clear
10:53 AM 75.9 °F - 55.9 °F 50% 30.12 in 10.0 mi SSE 5.8 mph - N/A   Clear
11:53 AM 78.1 °F - 57.0 °F 48% 30.10 in 10.0 mi SSE 5.8 mph - N/A   Clear
12:53 PM 80.1 °F 80.6 °F 57.9 °F 47% 30.08 in 10.0 mi SE 5.8 mph - N/A   Clear
1:53 PM 80.1 °F 80.6 °F 57.9 °F 47% 30.05 in 10.0 mi SW 4.6 mph - N/A   Mostly Cloudy
2:53 PM 81.0 °F 81.9 °F 62.1 °F 52% 30.05 in 10.0 mi West 11.5 mph - N/A   Mostly Cloudy
3:53 PM 79.0 °F - 61.0 °F 54% 30.03 in 10.0 mi SW 5.8 mph - N/A   Scattered Clouds
4:53 PM 78.1 °F - 62.1 °F 58% 30.04 in 10.0 mi SW 4.6 mph - N/A   Clear
5:53 PM 75.9 °F - 61.0 °F 60% 30.04 in 10.0 mi SSW 6.9 mph - N/A   Clear
6:53 PM 72.0 °F - 61.0 °F 68% 30.04 in 10.0 mi WSW 4.6 mph - N/A   Partly Cloudy
7:53 PM 71.1 °F - 62.1 °F 73% 30.06 in 10.0 mi Calm Calm - N/A   Mostly Cloudy
8:53 PM 71.1 °F - 62.1 °F 73% 30.07 in 10.0 mi Calm Calm - N/A   Overcast
9:53 PM 71.1 °F - 66.0 °F 84% 30.09 in 10.0 mi Calm Calm - 0.00 in   Overcast
10:53 PM 70.0 °F - 66.0 °F 87% 30.09 in 10.0 mi Calm Calm - 0.00 in   Overcast
11:53 PM 71.1 °F - 63.0 °F 75% 30.08 in 10.0 mi SSE 3.5 mph - N/A   Overcast